Weather History for Wilmington, NC

Change the Weather History Date:

Wednesday, October 3, 2012

  Actual Average Record
Temperature  
Mean Temperature 79 °F 69 °F  
Max Temperature 84 °F 79 °F 95 °F (1986)
Min Temperature 74 °F 59 °F 39 °F (1974)
Degree Days  
Heating Degree Days 0 1  
Month to date heating degree days 0 3  
Since 1 July heating degree days 0 8  
Cooling Degree Days 14 5  
Month to date cooling degree days 36 17  
Year to date cooling degree days 2111 1934  
Growing Degree Days 28 (Base 50)    
Moisture  
Dew Point 74 °F    
Average Humidity 84    
Maximum Humidity 93    
Minimum Humidity 74    
Precipitation  
Precipitation 0.10 in 0.17 in 2.68 in (1896)
Month to date precipitation 1.04 0.53  
Year to date precipitation 38.08 47.34  
Sea Level Pressure  
Sea Level Pressure 30.08 in    
Wind  
Wind Speed 6 mph (SSW)    
Max Wind Speed 15 mph    
Max Gust Speed 21 mph    
Visibility 10 miles    
Events Rain    
T = Trace of Precipitation, MM = Missing Value Source: NWS Daily Summary

Daily Weather History Graph

Daily Weather History Graph

Search for Another Location

Airport:

Trip Planner

Search our weather history database for the weather conditions in past years. The results will help you decide how hot, cold, wet, or windy it might be!

Date:

Astronomy

Oct. 03, 2012 Rise Set
Actual Time 7:07 AM EDT 6:52 PM EDT
Civil Twilight 6:42 AM EDT 7:17 PM EDT
Nautical Twilight 6:13 AM EDT 7:46 PM EDT
Astronomical Twilight 5:44 AM EDT 8:15 PM EDT
Moon 8:54 PM EDT (10/3) 10:19 AM EDT (10/3)
Length of Visible Light 12h 34m
Length of Day
11h 44m
Waning Gibbous, 89% of the Moon is Illuminated
Oct 3
Waning Gibbous
Oct 8
Last Quarter
Oct 15
New
Oct 21
First Quarter
Oct 29
Full

Hourly Weather History & Observations

Time (EDT) Temp. Heat Index Dew Point Humidity Pressure Visibility Wind Dir Wind Speed Gust Speed Precip Events Conditions
12:07 AM 78.8 °F - 75.2 °F 89% 30.02 in 10.0 mi South 10.4 mph - N/A   Scattered Clouds
12:46 AM 78.8 °F - 73.4 °F 83% 30.02 in 10.0 mi South 13.8 mph 17.3 mph N/A   Mostly Cloudy
12:53 AM 78.1 °F - 75.0 °F 90% 30.02 in 10.0 mi South 13.8 mph - N/A   Mostly Cloudy
1:20 AM 78.8 °F - 75.2 °F 89% 30.02 in 10.0 mi South 11.5 mph - N/A   Overcast
1:53 AM 79.0 °F - 75.9 °F 90% 30.02 in 10.0 mi South 11.5 mph - N/A   Overcast
2:04 AM 78.8 °F - 75.2 °F 89% 30.02 in 10.0 mi South 12.7 mph - N/A   Mostly Cloudy
2:43 AM 78.8 °F - 75.2 °F 89% 30.02 in 10.0 mi SSW 10.4 mph - N/A   Overcast
2:53 AM 79.0 °F - 75.0 °F 88% 30.02 in 10.0 mi South 10.4 mph - N/A   Overcast
3:04 AM 78.8 °F - 75.2 °F 89% 30.02 in 10.0 mi South 11.5 mph - N/A   Overcast
3:26 AM 78.8 °F - 75.2 °F 89% 30.03 in 10.0 mi South 10.4 mph - N/A   Overcast
3:42 AM 78.8 °F - 75.2 °F 89% 30.03 in 10.0 mi SSW 10.4 mph 18.4 mph 0.00 in   Overcast
3:53 AM 79.0 °F - 75.0 °F 88% 30.03 in 10.0 mi SSW 8.1 mph - 0.00 in   Overcast
4:08 AM 78.8 °F - 75.2 °F 89% 30.03 in 10.0 mi SSW 10.4 mph - 0.00 in Rain Light Rain
4:49 AM 77.0 °F - 75.2 °F 94% 30.04 in 9.0 mi SW 9.2 mph - 0.05 in Rain Light Rain
4:53 AM 77.0 °F - 73.9 °F 90% 30.04 in 10.0 mi SW 10.4 mph - 0.05 in Rain Light Rain
5:53 AM 75.0 °F - 72.0 °F 90% 30.05 in 10.0 mi SSW 4.6 mph - 0.00 in   Partly Cloudy
6:53 AM 73.9 °F - 72.0 °F 93% 30.06 in 10.0 mi Calm Calm - 0.00 in   Clear
7:53 AM 73.9 °F - 72.0 °F 93% 30.09 in 10.0 mi Calm Calm - N/A   Scattered Clouds
8:53 AM 75.0 °F - 73.0 °F 94% 30.11 in 5.0 mi Calm Calm - 0.01 in Rain Rain
9:53 AM 77.0 °F - 73.9 °F 90% 30.12 in 10.0 mi South 4.6 mph - 0.02 in   Overcast
10:53 AM 78.1 °F - 75.0 °F 90% 30.13 in 10.0 mi SE 3.5 mph - N/A   Partly Cloudy
11:53 AM 81.0 °F 86.7 °F 75.0 °F 82% 30.12 in 10.0 mi SSW 6.9 mph - N/A   Partly Cloudy
12:53 PM 81.0 °F 87.3 °F 75.9 °F 85% 30.12 in 10.0 mi South 6.9 mph - 0.00 in Rain Light Rain
1:53 PM 81.0 °F 87.3 °F 75.9 °F 85% 30.11 in 10.0 mi SSW 6.9 mph - 0.00 in   Overcast
2:01 PM 82.4 °F 89.5 °F 75.2 °F 79% 30.10 in 10.0 mi SSW 5.8 mph - N/A   Mostly Cloudy
2:28 PM 82.4 °F 88.2 °F 73.4 °F 74% 30.10 in 10.0 mi SW 6.9 mph - N/A   Scattered Clouds
2:53 PM 82.0 °F 88.6 °F 75.0 °F 79% 30.09 in 10.0 mi SSW 6.9 mph - N/A   Partly Cloudy
3:19 PM 82.4 °F 89.5 °F 75.2 °F 79% 30.09 in 10.0 mi WSW 8.1 mph - 0.00 in Rain Light Rain
3:53 PM 82.9 °F 91.8 °F 77.0 °F 82% 30.09 in 5.0 mi West 5.8 mph - 0.02 in Rain Light Rain
4:36 PM 82.4 °F 88.2 °F 73.4 °F 74% 30.09 in 10.0 mi SSW 5.8 mph - 0.00 in   Mostly Cloudy
4:45 PM 82.4 °F 88.2 °F 73.4 °F 74% 30.10 in 10.0 mi SSW 8.1 mph - 0.00 in   Scattered Clouds
4:53 PM 82.0 °F 87.4 °F 73.0 °F 74% 30.10 in 10.0 mi SSW 8.1 mph - 0.00 in   Mostly Cloudy
5:00 PM 82.4 °F 88.2 °F 73.4 °F 74% 30.10 in 10.0 mi SSW 5.8 mph - N/A   Scattered Clouds
5:53 PM 81.0 °F 84.9 °F 71.1 °F 72% 30.11 in 10.0 mi SSW 5.8 mph - N/A   Clear
6:53 PM 78.1 °F - 71.1 °F 79% 30.12 in 10.0 mi South 6.9 mph - N/A   Clear
7:53 PM 75.9 °F - 72.0 °F 87% 30.14 in 10.0 mi SSW 4.6 mph - N/A   Clear
8:53 PM 75.2 °F - 71.6 °F 89% 30.15 in 10.0 mi South 5.8 mph - N/A   Partly Cloudy
9:53 PM 75.0 °F - 72.0 °F 90% 30.18 in 10.0 mi SSW 5.8 mph - N/A   Partly Cloudy
10:53 PM 75.2 °F - 71.6 °F 89% 30.18 in 10.0 mi SSW 6.9 mph - N/A   Overcast
11:53 PM 75.9 °F - 72.0 °F 87% 30.19 in 10.0 mi SW 6.9 mph - N/A   Overcast